Location: Lynch Observatory
(39.9540°N, 75.1861°W)
Time: 10:55:44
(UTC-04:00)

STARS - Visible Passes

Search period start: 13 July 2025 00:00
Search period end: 23 July 2025 00:00
Orbit: 586 x 597 km, 98.1° (Epoch: 12 July)

Date Brightness Start Highest point End Pass type
(mag) Time Alt. Az. Time Alt. Az. Time Alt. Az.
13 Jul ? 01:06:07 10° ENE 01:07:02 12° ENE 01:07:02 12° ENE visible
13 Jul ? 02:39:55 10° N 02:43:36 46° WNW 02:43:36 46° WNW visible
14 Jul ? 01:14:02 10° NE 01:15:34 15° ENE 01:15:34 15° ENE visible
14 Jul ? 02:48:30 10° N 02:52:08 37° WNW 02:52:08 37° WNW visible
15 Jul ? 01:22:07 10° NE 01:24:05 18° ENE 01:24:05 18° ENE visible
15 Jul ? 02:57:07 10° N 03:00:39 30° WNW 03:00:39 30° WNW visible
16 Jul ? 01:30:19 10° NE 01:32:36 22° ENE 01:32:36 22° ENE visible
16 Jul ? 03:05:46 10° NNW 03:09:10 25° WNW 03:09:10 25° WNW visible
17 Jul ? 01:38:34 10° NE 01:41:07 26° ENE 01:41:07 26° ENE visible
17 Jul ? 03:14:29 10° NNW 03:17:36 21° WNW 03:17:41 21° WNW visible
18 Jul ? 01:46:53 10° NNE 01:49:37 31° ENE 01:49:37 31° ENE visible
18 Jul ? 03:23:16 10° NNW 03:25:58 17° WNW 03:26:11 17° WNW visible
19 Jul ? 01:55:13 10° NNE 01:58:08 37° NE 01:58:08 37° NE visible
19 Jul ? 03:32:10 10° NNW 03:34:21 14° WNW 03:34:42 14° WNW visible
20 Jul ? 02:03:36 10° NNE 02:06:37 43° NE 02:06:37 43° NE visible
20 Jul ? 03:41:19 10° NW 03:42:42 11° WNW 03:43:11 11° WNW visible
21 Jul ? 02:12:01 10° NNE 02:15:07 49° NNE 02:15:07 49° NNE visible
22 Jul ? 02:20:27 10° NNE 02:23:36 51° N 02:23:36 51° N visible
